Glendale Luke AFB, AZ

6:42 PM MST on November 22, 2019 (GMT -0700)
Luke Air Force Base

Weather History for KLUF - September, 2019

Change the Weather History Date:

Thursday, September 26, 2019

  Actual Average Record
Temperature  
Mean Temperature 77 °F -  
Max Temperature 85 °F 97 °F 108 °F (1991)
Min Temperature 69 °F 63 °F 46 °F (1920)
Cooling Degree Days 12    
Growing Degree Days 27 (Base 50)    
Moisture  
Dew Point 67 °F    
Average Humidity 78    
Maximum Humidity 100    
Minimum Humidity 45    
Precipitation  
Precipitation 0.05 in - - ()
Sea Level Pressure  
Sea Level Pressure 29.87 in    
Wind  
Wind Speed 3 mph (WSW)    
Max Wind Speed 14 mph    
Max Gust Speed -    
Visibility 9 miles    
Events Rain , Thunderstorm    
Averages and records for this station are not official NWS values.
T = Trace of Precipitation, MM = Missing Value Source: NWS Daily Summary

Daily Weather History Graph

Daily Weather History Graph

Search for Another Location

Airport or City:

Astronomy

Sep. 26, 2019 Rise Set
Actual Time 6:20 AM MST 6:20 PM MST
Civil Twilight 5:55 AM MST 6:45 PM MST
Nautical Twilight 5:26 AM MST 7:14 PM MST
Astronomical Twilight 4:57 AM MST 7:43 PM MST
Moon 3:43 AM MST (9/26) 5:26 PM MST (9/26)
Length of Visible Light 12h 50m
Length of Day
12h 00m
Waning Crescent, 6% of the Moon is Illuminated
Sep 26
Waning Crescent
Sep 28
New
Oct 5
First Quarter
Oct 13
Full
Oct 21
Last Quarter

Hourly Weather History & Observations

Time (MST) Temp. Heat Index Dew Point Humidity Pressure Visibility Wind Dir Wind Speed Gust Speed Precip Events Conditions
12:18 AM 69.8 °F - 69.8 °F 100% 29.87 in 10.0 mi NE 4.6 mph - N/A   Overcast
12:58 AM 70.2 °F - 68.5 °F 95% 29.87 in 10.0 mi Calm Calm - N/A   Overcast
1:08 AM 69.8 °F - 68.0 °F 94% 29.88 in 10.0 mi Calm Calm - N/A   Overcast
1:28 AM 69.8 °F - 69.8 °F 100% 29.87 in 10.0 mi Calm Calm - N/A   Overcast
1:58 AM 70.3 °F - 68.2 °F 93% 29.87 in 10.0 mi Calm Calm - N/A   Scattered Clouds
2:18 AM 71.6 °F - 69.8 °F 94% 29.87 in 10.0 mi Calm Calm - N/A   Mostly Cloudy
2:58 AM 70.3 °F - 69.4 °F 97% 29.87 in 10.0 mi Calm Calm - N/A   Mostly Cloudy
3:58 AM 70.0 °F - 70.0 °F 100% 29.86 in 8.0 mi NNE 5.8 mph - N/A Thunderstorm Overcast
3:59 AM 69.8 °F - 69.8 °F 100% 29.86 in 9.0 mi NNE 4.6 mph - N/A Thunderstorm Thunderstorm
4:08 AM 69.8 °F - 69.8 °F 100% 29.87 in 6.0 mi South 5.8 mph - N/A Thunderstorm Unknown
4:18 AM 69.8 °F - 69.8 °F 100% 29.89 in 2.5 mi SW 10.4 mph - N/A Rain , Thunderstorm Heavy Thunderstorms and Rain
4:23 AM 69.8 °F - 69.8 °F 100% 29.88 in 3.0 mi WSW 6.9 mph - N/A Rain , Thunderstorm Light Thunderstorms and Rain
4:30 AM 69.8 °F - 69.8 °F 100% 29.88 in 4.0 mi North 3.5 mph - N/A Rain Light Rain
4:35 AM 69.8 °F - 69.8 °F 100% 29.88 in 6.0 mi Calm Calm - N/A   Light Drizzle
4:37 AM 69.8 °F - 69.8 °F 100% 29.88 in 8.0 mi WSW 5.8 mph - N/A Rain , Thunderstorm Thunderstorms and Rain
4:50 AM 69.8 °F - - N/A% 29.89 in 10.0 mi Calm Calm - N/A Thunderstorm Thunderstorm
4:52 AM 69.8 °F - - N/A% 29.89 in 10.0 mi West 4.6 mph - N/A   Overcast
4:58 AM 69.8 °F - - N/A% 29.89 in 10.0 mi West 6.9 mph - 0.05 in   Mostly Cloudy
5:08 AM 69.8 °F - - N/A% 29.93 in 10.0 mi West 6.9 mph - N/A   Overcast
5:38 AM 69.8 °F - - N/A% 29.89 in 10.0 mi NNW 3.5 mph - N/A   Overcast
5:58 AM 69.8 °F - 69.8 °F 100% 29.90 in 10.0 mi NE 3.5 mph - N/A   Mostly Cloudy
6:42 AM 69.8 °F - - N/A% 29.92 in 10.0 mi NNE 4.6 mph - N/A   Mostly Cloudy
6:58 AM 69.8 °F - - N/A% 29.92 in 10.0 mi North 5.8 mph - N/A   Overcast
7:58 AM 71.8 °F - 71.8 °F 100% 29.93 in 10.0 mi North 5.8 mph - N/A   Mostly Cloudy
8:38 AM 73.4 °F - 69.8 °F 88% 29.95 in 10.0 mi North 3.5 mph - N/A   Overcast
8:48 AM 75.2 °F - 69.8 °F 83% 29.95 in 10.0 mi North 4.6 mph - N/A   Overcast
8:58 AM 74.5 °F - 70.0 °F 86% 29.96 in 10.0 mi NNE 3.5 mph - N/A   Mostly Cloudy
9:58 AM 77.4 °F - 67.6 °F 72% 29.95 in 10.0 mi Calm Calm - N/A   Mostly Cloudy
10:18 AM 78.8 °F - 66.2 °F 65% 29.94 in 10.0 mi Calm Calm - N/A   Overcast
10:58 AM 79.3 °F - 67.5 °F 67% 29.94 in 10.0 mi West 3.5 mph - N/A   Mostly Cloudy
11:38 AM 80.6 °F 82.7 °F 66.2 °F 61% 29.91 in 10.0 mi Calm Calm - N/A   Mostly Cloudy
11:58 AM 80.1 °F 82.1 °F 65.8 °F 62% 29.91 in 10.0 mi SSW 5.8 mph - N/A   Mostly Cloudy
12:08 PM 80.6 °F 82.3 °F 64.4 °F 58% 29.91 in 10.0 mi Calm Calm - N/A   Mostly Cloudy
12:28 PM 82.4 °F 83.9 °F 64.4 °F 54% 29.90 in 10.0 mi SSW 3.5 mph - N/A   Mostly Cloudy
12:58 PM 83.1 °F 84.8 °F 64.8 °F 54% 29.88 in 10.0 mi Calm Calm - N/A   Scattered Clouds
1:09 PM 82.4 °F 83.9 °F 64.4 °F 54% 29.88 in 10.0 mi East 5.8 mph - N/A   Scattered Clouds
1:58 PM 83.1 °F 83.7 °F 61.3 °F 48% 29.85 in 10.0 mi WSW 3.5 mph - N/A   Scattered Clouds
2:58 PM 84.7 °F 85.0 °F 61.0 °F 45% 29.83 in 10.0 mi South 3.5 mph - N/A   Scattered Clouds
3:58 PM 85.6 °F 86.1 °F 61.9 °F 45% 29.81 in 10.0 mi WSW 5.8 mph - N/A Thunderstorm Mostly Cloudy
4:21 PM 84.2 °F 84.4 °F 60.8 °F 45% 29.81 in 10.0 mi West 5.8 mph - N/A   Mostly Cloudy
4:54 PM 82.4 °F 83.9 °F 64.4 °F 54% 29.81 in 10.0 mi WSW 13.8 mph - N/A   Overcast
4:58 PM 81.9 °F 83.5 °F 64.6 °F 56% 29.81 in 10.0 mi WSW 12.7 mph - 0.00 in   Overcast
5:58 PM 76.1 °F - 65.1 °F 69% 29.83 in 10.0 mi SE 10.4 mph - N/A   Overcast
6:48 PM 75.2 °F - 66.2 °F 73% 29.83 in 10.0 mi Calm Calm - N/A   Scattered Clouds
6:58 PM 74.3 °F - 66.6 °F 77% 29.83 in 10.0 mi Calm Calm - N/A   Scattered Clouds
7:06 PM 73.4 °F - 66.2 °F 78% 29.84 in 10.0 mi WNW 3.5 mph - N/A   Light Drizzle
7:11 PM 73.4 °F - 66.2 °F 78% 29.84 in 10.0 mi Calm Calm - N/A   Scattered Clouds
7:21 PM 75.2 °F - 66.2 °F 73% 29.83 in 10.0 mi Calm Calm - N/A   Mostly Cloudy
7:41 PM 75.2 °F - 66.2 °F 73% 29.85 in 10.0 mi Calm Calm - N/A   Overcast
7:51 PM 75.2 °F - 66.2 °F 73% 29.85 in 10.0 mi Calm Calm - N/A   Overcast
7:58 PM 74.8 °F - 65.5 °F 73% 29.85 in 10.0 mi Calm Calm - 0.00 in   Overcast
8:36 PM 75.2 °F - 66.2 °F 73% 29.86 in 10.0 mi Calm Calm - N/A   Light Drizzle
8:41 PM 75.2 °F - 66.2 °F 73% 29.86 in 10.0 mi SSW 4.6 mph - N/A   Overcast
8:58 PM 75.4 °F - 66.4 °F 73% 29.86 in 10.0 mi SW 12.7 mph - 0.00 in   Overcast
9:38 PM 73.4 °F - 64.4 °F 73% 29.86 in 10.0 mi SSW 9.2 mph - N/A   Overcast
9:48 PM 73.4 °F - 64.4 °F 73% 29.85 in 10.0 mi SSW 8.1 mph - N/A   Overcast
9:58 PM 73.0 °F - 64.6 °F 75% 29.85 in 10.0 mi SSW 9.2 mph - N/A   Overcast
10:48 PM 71.6 °F - 64.4 °F 78% 29.84 in 10.0 mi Calm Calm - N/A   Mostly Cloudy
10:58 PM 72.3 °F - 64.2 °F 76% 29.83 in 10.0 mi South 4.6 mph - N/A   Scattered Clouds
11:58 PM 72.3 °F - 65.1 °F 78% 29.83 in 10.0 mi SSW 3.5 mph - N/A   Mostly Cloudy